This demonstration page uses our WeatherBlox Daily Observations layout. Learn more.

Left ArrowRight Arrow

Hourly Observations for August 12, 2017

Temp ( °F °C ) Dew Point ( °F °C ) Humidity (%) Winds ( mph kmh ) Pressure ( in mb ) Visibility ( mi km ) Precip ( " mm )
12:52 am 00:52 Clear 69 20.6 68 20 96 96 N 3 6 30.02 1017 10 16 0.00 0.00
1:52 am 01:52 Clear 67 19.4 67 19.4 100 100 N 3 6 30.01 1016 7 11 0.00 0.00
2:52 am 02:52 Mostly Cloudy 68 20 67 19.4 96 96 Calm 30.01 1016 9 14 0.00 0.00
3:52 am 03:52 Cloudy 68 20 67 19.4 96 96 Calm 30.01 1016 10 16 0.00 0.00
4:52 am 04:52 Mostly Clear 68 20 67 19.4 96 96 ENE 3 6 30.00 1016 10 16 0.00 0.00
5:52 am 05:52 Clear 66 18.9 66 18.9 100 100 SE 3 6 30.02 1017 10 16 0.00 0.00
6:52 am 06:52 Sunny 67 19.4 65 18.3 93 93 E 6 9 30.04 1017 10 16 0.00 0.00
7:52 am 07:52 Mostly Cloudy 68 20 65 18.3 90 90 ENE 7 11 30.06 1018 10 16 0.00 0.00
8:52 am 08:52 Cloudy 70 21.1 66 18.9 87 87 E 9 15 30.06 1018 10 16 0.00 0.00
9:52 am 09:52 Cloudy 72 22.2 63 17.2 73 73 E 7 11 30.06 1018 10 16 0.00 0.00
10:52 am 10:52 Mostly Cloudy 75 23.9 62 16.7 64 64 E 8 13 30.07 1018 10 16 0.00 0.00
11:52 am 11:52 Mostly Cloudy 75 23.9 62 16.7 64 64 ESE 3 6 30.09 1019 10 16 0.00 0.00
12:52 pm 12:52 Cloudy 76 24.4 61 16.1 60 60 Calm 30.08 1019 10 16 0.00 0.00
1:52 pm 13:52 Mostly Sunny 77 25 62 16.7 60 60 NE 7 11 30.07 1018 10 16 0.00 0.00
2:52 pm 14:52 Cloudy 77 25 64 17.8 64 64 NNE 8 13 30.05 1018 10 16 0.00 0.00
3:52 pm 15:52 Sunny 77 25 62 16.7 60 60 NE 12 19 30.04 1017 10 16 0.00 0.00
4:52 pm 16:52 Sunny 75 23.9 63 17.2 66 66 ENE 9 15 30.03 1017 10 16 0.00 0.00
5:52 pm 17:52 Mostly Sunny 74 23.3 64 17.8 71 71 NE 8 13 30.02 1017 10 16 0.00 0.00
6:52 pm 18:52 Sunny 74 23.3 64 17.8 71 71 ENE 6 9 30.01 1016 10 16 0.00 0.00
7:52 pm 19:52 Sunny 73 22.8 62 16.7 69 69 ENE 7 11 29.99 1016 10 16 0.00 0.00
8:52 pm 20:52 Clear 71 21.7 62 16.7 73 73 E 6 9 30.00 1016 10 16 0.00 0.00
9:52 pm 21:52 Partly Cloudy 70 21.1 62 16.7 76 76 E 5 7 30.01 1016 10 16 0.00 0.00
10:52 pm 22:52 Mostly Clear 68 20 63 17.2 84 84 ENE 5 7 30.01 1016 10 16 0.00 0.00
11:52 pm 23:52 Cloudy 69 20.6 63 17.2 81 81 ENE 6 9 30.04 1017 10 16 0.00 0.00

Powered by AerisWeather